12h24 EST


 

Suivi/Infos de l'aéroport


-ou-


 

Suivi des vols en temps réelN904PA ✈ 07-05-2013 ✈ KDWA - KVNY

Thumbnail
N904PA
PARAMOUNT CITRUS LLC · DELANO CA (registration)
Yolo County ( – info)
Davis/Woodland/Winters, CA
Van Nuys ( – info)
Van Nuys, CA
15h06 PDT
16h26 PDT
Prévu: 15h00 PDT
Prévu: 16h19 PDT
Durée: 1 heure 20 minutes
mardi, 7 mai 2013
Statut A atterri il y a plus d'un an. (journal de vol & graphique)
Avion Beechcraft King Air 90 (bi-turbopropulseur) (BE9L/R – photos)
Vitesse Plan de vol: 267 kts (graphique)
Altitude Plan de vol: 21.000 Pieds (graphique)
Distance En ligne droite 572 km    Prévue 587 km    Parcourue 592 km
Route SAC V23 LIN CZQ LHS (Décoder)
JOURNAL DE L'ACTIVITE
Vous voulez une recherche complète sur l'historique de N904PA depuis 1998? Achetez maintenant. Recevez-le dans l'heure.
Date Avion Provenance Destination Départ Arrivée Durée
18-12-2014 BE9L/GMeadows Field ()Santa Monica Muni () 07h22 PST 07h55 PST 0:33
18-12-2014 UnknownR MQO 45 24Santa Monica Muni () 00h39 UTC 18h26 PST (-1) 1:46
17-12-2014 BE9L/GNut Tree ()Meadows Field () 15h21 PST 16h14 PST 0:53
17-12-2014 BE9L/GMeadows Field ()Nut Tree () 13h52 PST 14h54 PST 1:02
17-12-2014 BE9L/GSanta Monica Muni ()Meadows Field () 10h37 PST 11h04 PST 0:26
17-12-2014 BE9L/GFresno Yosemite Intl ()Santa Monica Muni () 08h39 PST 09h28 PST 0:49
17-12-2014 BE9L/GMeadows Field ()Fresno Yosemite Intl () 07h54 PST 08h21 PST 0:26
16-12-2014 BE9L/GSanta Monica Muni ()Meadows Field () 17h31 PST 17h57 PST 0:26
16-12-2014 BE9L/GMeadows Field ()Santa Monica Muni () 16h17 PST 16h54 PST 0:37
16-12-2014 BE9L/GMeadows Field ()Santa Monica Muni () 15h41 PST 15h56 PST 0:14
16-12-2014 BE9L/GSalinas Muni ()Sacramento Executive () 10h23 PST 11h09 PST 0:46
16-12-2014 BE9L/GFresno Yosemite Intl ()Salinas Muni () 09h11 PST 09h43 PST 0:32
16-12-2014 BE9L/GMeadows Field ()Fresno Yosemite Intl () 08h31 PST 08h47 PST 0:16
16-12-2014 BE9L/GSanta Monica Muni ()Meadows Field () 07h36 PST 08h07 PST 0:31
16-12-2014 BE9L/GMeadows Field ()Santa Monica Muni () 06h42 PST 07h17 PST 0:34
15-12-2014 BE9L/GSanta Monica Muni ()Meadows Field () 18h00 PST 18h21 PST 0:20
15-12-2014 BE9L/GParamount Farms ()Santa Monica Muni () 17h12 PST 17h42 PST 0:30
16-12-2014 BE9L/G ()Santa Monica Muni () 01h12 UTC 17h44 PST (-1) 0:32
15-12-2014 BE9L/GSanta Monica Muni ()Meadows Field () 15h30 PST 15h52 PST 0:21
15-12-2014 BE9L/GMeadows Field ()Santa Monica Muni () 14h22 PST 14h53 PST 0:30
15-12-2014 UnknownSanta Monica Muni ()Paramount Farms () 07h39 PST 08h18 PST 0:39
15-12-2014 UnknownSanta Monica Muni ()Meadows Field () 07h39 PST Dérouté
12-12-2014 BE9L/GVisalia Muni ()Meadows Field () 18h23 PST 18h39 PST 0:16
12-12-2014 BE9L/GSanta Monica Muni ()Visalia Muni () 17h18 PST 18h07 PST 0:49
12-12-2014 BE9L/GMeadows Field ()Santa Monica Muni () 15h42 PST 16h20 PST 0:38
12-12-2014 BE9L/IFresno Yosemite Intl ()Meadows Field () 14h57 PST 15h21 PST 0:24
12-12-2014 BE9L/IVan Nuys ()Fresno Yosemite Intl () 13h44 PST 14h32 PST 0:48
12-12-2014 BE9L/IDelano Muni ()Van Nuys () 12h29 PST 13h02 PST 0:33
12-12-2014 BE9L/IVan Nuys ()Delano Muni () 07h09 PST 07h40 PST 0:31
12-12-2014 BE9L/IMeadows Field ()Van Nuys () 06h20 PST 06h49 PST 0:29
11-12-2014 BE9L/GSanta Monica Muni ()Meadows Field () 17h52 PST 18h18 PST 0:26
11-12-2014 BE9L/GParamount Farms ()Santa Monica Muni () 16h46 PST 17h25 PST 0:39
11-12-2014 BE9L/GSanta Monica Muni ()Meadows Field () 13h35 PST 14h03 PST 0:28
11-12-2014 BE9L/GPaso Robles Muni ()Santa Monica Muni () 12h33 PST 13h22 PST 0:48
11-12-2014 BE9L/GDelano Muni ()Paso Robles Muni () 11h39 PST 11h59 PST 0:19
11-12-2014 BE9L/GSanta Monica Muni ()Delano Muni () 10h48 PST 11h16 PST 0:28
11-12-2014 BE9L/GPaso Robles Muni ()Santa Monica Muni () 08h33 PST 09h14 PST 0:40
11-12-2014 BE9L/GMeadows Field ()Paso Robles Muni () 07h44 PST 08h02 PST 0:17
10-12-2014 BE9L/GSanta Monica Muni ()Meadows Field () 18h46 PST 19h07 PST 0:20
10-12-2014 BE9L/GMeadows Field ()Santa Monica Muni () 18h01 PST 18h32 PST 0:30
10-12-2014 BE9L/GFresno Yosemite Intl ()Meadows Field () 17h14 PST 17h42 PST 0:28
10-12-2014 BE9L/GMeadows Field ()Fresno Yosemite Intl () 10h34 PST 10h57 PST 0:22
11-12-2014 BE9L/GGreymouth Aerodrome ()Meadows Field () 05h22 NZDT 08h49 PST (-1) 0:27
09-12-2014 BE9L/GDelano Muni ()Santa Monica Muni () 17h04 PST 17h32 PST 0:28
09-12-2014 BE9L/GSan Luis County Rgnl ()Meadows Field () 14h43 PST 16h03 PST 1:19
09-12-2014 BE9L/GMeadows Field ()Santa Monica Muni () 13h56 PST 14h24 PST 0:28
09-12-2014 Unknown ()Delano Muni () 20h04 UTC 13h01 PST 0:57
09-12-2014 BE9L ()Santa Monica Muni () 15h39 UTC 08h12 PST 0:33
09-12-2014 BE9L/GMeadows Field ()San Luis County Rgnl () 06h23 PST 06h47 PST 0:23
08-12-2014 BE9LVan Nuys ()Visalia Muni () 13h40 PST 14h16 PST 0:35
08-12-2014 BE9L ()Jacqueline Cochran Rgnl () 15h36 UTC 10h15 PST 2:39
08-12-2014 BE9L ()Paramount Farms () 15h36 UTC Dérouté
08-12-2014 BE9L ()Meadows Field () 15h36 UTC Dérouté
08-12-2014 BE9L () () 15h36 UTC Dérouté
06-12-2014 Unknown ()Meadows Field () 02h07 UTC 18h35 PST (-1) 0:28
Les membres inscrits (l'inscription est gratuite et facile!) voient 4 months d'historique. S'inscrire